,,,PA_Meas_PMT16A,,PR_Meas_QMR101_102,,RH_Meas_QMH101,,SR_Meas_QMS101,,TA_Meas_QMH101,,GenWind,,GenWind,
date,time,status,PA,status,PR,status,RH,status,SR,status,TA,status,DirAvg,status,SpdAvg,
2009-09-28, 00:00:04,VALID,1008.09,VALID,0,VALID,93.7968,VALID,0.105969,VALID,25.5632,VALID,336,VALID,0.0140625,
2009-09-28, 00:01:04,VALID,1008.06,VALID,0,VALID,93.8349,VALID,0,VALID,25.5242,VALID,336,VALID,0,
2009-09-28, 00:02:04,VALID,1008.07,VALID,0,VALID,93.812,VALID,0.105969,VALID,25.5047,VALID,336,VALID,0,
2009-09-28, 00:03:04,VALID,1008.05,VALID,0,VALID,93.8044,VALID,0.105969,VALID,25.4657,VALID,180,VALID,0.333594,
2009-09-28, 00:04:04,VALID,1008.07,VALID,0,VALID,94.0484,VALID,0,VALID,25.4072,VALID,180,VALID,0.153516,
2009-09-28, 00:05:04,VALID,1008.08,VALID,0,VALID,94.3611,VALID,0.105969,VALID,25.3683,VALID,180,VALID,0.0203125,
2009-09-28, 00:06:04,VALID,1008.04,VALID,0,VALID,94.5441,VALID,0,VALID,25.3702,VALID,180,VALID,0,
2009-09-28, 00:07:04,VALID,1008.02,VALID,0,VALID,94.8568,VALID,0.105969,VALID,25.3293,VALID,180,VALID,0,
2009-09-28, 00:08:04,VALID,1008.03,VALID,0,VALID,94.9559,VALID,0.105969,VALID,25.3293,VALID,180,VALID,0,
2009-09-28, 00:09:04,VALID,1008.01,VALID,0,VALID,95.0016,VALID,0.105969,VALID,25.3098,VALID,180,VALID,0,
2009-09-28, 00:10:04,VALID,1008.04,VALID,0,VALID,95.0016,VALID,0.105969,VALID,25.2903,VALID,180,VALID,0,
2009-09-28, 00:11:04,VALID,1007.99,VALID,0,VALID,94.9788,VALID,0.105969,VALID,25.2903,VALID,180,VALID,0,
2009-09-28, 00:12:04,VALID,1008.01,VALID,0,VALID,95.055,VALID,0,VALID,25.2708,VALID,180,VALID,0,
2009-09-28, 00:13:04,VALID,1008,VALID,0,VALID,95.1084,VALID,0.105969,VALID,25.2513,VALID,180,VALID,0,
2009-09-28, 00:14:04,VALID,1007.96,VALID,0,VALID,95.1542,VALID,0,VALID,25.2532,VALID,180,VALID,0,
2009-09-28, 00:15:04,VALID,1007.99,VALID,0,VALID,95.238,VALID,0,VALID,25.2337,VALID,180,VALID,0,
2009-09-28, 00:16:04,VALID,1007.98,VALID,0,VALID,95.4287,VALID,0,VALID,25.2551,VALID,180,VALID,0,
2009-09-28, 00:17:04,VALID,1007.93,VALID,0,VALID,95.36,VALID,0,VALID,25.2337,VALID,335,VALID,0.495703,
2009-09-28, 00:18:04,VALID,1007.96,VALID,0,VALID,95.4897,VALID,0,VALID,25.2337,VALID,344,VALID,0.373047,
2009-09-28, 00:19:04,VALID,1007.97,VALID,0,VALID,95.4973,VALID,0,VALID,25.2161,VALID,344,VALID,0.103906,
2009-09-28, 00:20:04,VALID,1008.02,VALID,0,VALID,95.4897,VALID,0,VALID,25.1947,VALID,344,VALID,0.186719,
2009-09-28, 00:21:04,VALID,1007.98,VALID,0,VALID,95.4744,VALID,0,VALID,25.2551,VALID,344,VALID,0.463672,
2009-09-28, 00:22:04,VALID,1008,VALID,0,VALID,95.3829,VALID,0,VALID,25.2551,VALID,344,VALID,0.625781,
2009-09-28, 00:23:04,VALID,1007.96,VALID,0,VALID,95.238,VALID,0,VALID,25.2532,VALID,346,VALID,0.533984,
2009-09-28, 00:24:04,VALID,1007.98,VALID,0,VALID,95.238,VALID,0,VALID,25.2551,VALID,346,VALID,0.145703,
2009-09-28, 00:25:04,VALID,1007.94,VALID,0,VALID,95.3448,VALID,0,VALID,25.2356,VALID,346,VALID,0,
2009-09-28, 00:26:04,VALID,1007.92,VALID,0,VALID,95.3905,VALID,0,VALID,25.1947,VALID,346,VALID,0,
2009-09-28, 00:27:04,VALID,1007.9,VALID,0,VALID,95.3905,VALID,0,VALID,25.2161,VALID,346,VALID,0,
2009-09-28, 00:28:04,VALID,1007.83,VALID,0,VALID,95.3295,VALID,0,VALID,25.1771,VALID,346,VALID,0,
2009-09-28, 00:29:04,VALID,1007.85,VALID,0,VALID,95.3143,VALID,0,VALID,25.1362,VALID,346,VALID,0,
2009-09-28, 00:30:04,VALID,1007.8,VALID,0,VALID,95.4363,VALID,0.105969,VALID,25.0954,VALID,346,VALID,0,
2009-09-28, 00:31:04,VALID,1007.77,VALID,0,VALID,95.5964,VALID,0.105969,VALID,25.0954,VALID,346,VALID,0,
2009-09-28, 00:32:04,VALID,1007.72,VALID,0,VALID,95.7871,VALID,0.105969,VALID,25.0564,VALID,346,VALID,0,
2009-09-28, 00:33:04,VALID,1007.71,VALID,0,VALID,95.993,VALID,0,VALID,25.0583,VALID,346,VALID,0,
2009-09-28, 00:34:04,VALID,1007.67,VALID,0,VALID,96.0692,VALID,0,VALID,25.0583,VALID,346,VALID,0,
2009-09-28, 00:35:04,VALID,1007.65,VALID,0,VALID,96.1836,VALID,0.105969,VALID,25.0174,VALID,346,VALID,0,
2009-09-28, 00:36:04,VALID,1007.63,VALID,0,VALID,96.115,VALID,0,VALID,24.9998,VALID,346,VALID,0.289063,
2009-09-28, 00:37:04,VALID,1007.62,VALID,0,VALID,96.0082,VALID,0,VALID,24.9218,VALID,346,VALID,0.142188,
2009-09-28, 00:38:04,VALID,1007.61,VALID,0,VALID,96.0616,VALID,0,VALID,24.9023,VALID,346,VALID,0,
2009-09-28, 00:39:04,VALID,1007.61,VALID,0,VALID,96.1226,VALID,0.105969,VALID,24.8828,VALID,346,VALID,0.126953,
2009-09-28, 00:40:04,VALID,1007.56,VALID,0,VALID,96.2065,VALID,0.105969,VALID,24.8633,VALID,346,VALID,0,
2009-09-28, 00:41:04,VALID,1007.56,VALID,0,VALID,96.42,VALID,0,VALID,24.8438,VALID,346,VALID,0.245703,
2009-09-28, 00:42:04,VALID,1007.53,VALID,0,VALID,96.6793,VALID,0,VALID,24.8225,VALID,346,VALID,0.237109,
2009-09-28, 00:43:04,VALID,1007.5,VALID,0,VALID,96.7937,VALID,0,VALID,24.8225,VALID,346,VALID,0,
2009-09-28, 00:44:04,VALID,1007.49,VALID,0,VALID,96.8471,VALID,0,VALID,24.8438,VALID,346,VALID,0,
2009-09-28, 00:45:04,VALID,1007.46,VALID,0,VALID,96.8547,VALID,0,VALID,24.8244,VALID,346,VALID,0,
2009-09-28, 00:46:04,VALID,1007.46,VALID,0,VALID,96.8928,VALID,0.105969,VALID,24.8049,VALID,346,VALID,0.00820312,
2009-09-28, 00:47:04,VALID,1007.44,VALID,0,VALID,96.9386,VALID,0.105969,VALID,24.764,VALID,346,VALID,0,
2009-09-28, 00:48:04,VALID,1007.43,VALID,0,VALID,96.9843,VALID,0,VALID,24.7445,VALID,346,VALID,0,
2009-09-28, 00:49:04,VALID,1007.39,VALID,0,VALID,96.9843,VALID,0.105969,VALID,24.725,VALID,346,VALID,0,
2009-09-28, 00:50:04,VALID,1007.41,VALID,0,VALID,96.9996,VALID,0,VALID,24.7464,VALID,346,VALID,0,
2009-09-28, 00:51:04,VALID,1007.42,VALID,0,VALID,97.0301,VALID,0.105969,VALID,24.7055,VALID,346,VALID,0,
2009-09-28, 00:52:04,VALID,1007.39,VALID,0,VALID,97.053,VALID,0,VALID,24.7269,VALID,346,VALID,0,
2009-09-28, 00:53:04,VALID,1007.4,VALID,0,VALID,97.1979,VALID,0,VALID,24.7464,VALID,346,VALID,0,
2009-09-28, 00:54:04,VALID,1007.37,VALID,0,VALID,97.2512,VALID,0,VALID,24.7464,VALID,346,VALID,0,
2009-09-28, 00:55:04,VALID,1007.35,VALID,0,VALID,97.2741,VALID,0.105969,VALID,24.7464,VALID,346,VALID,0.138672,
2009-09-28, 00:56:04,VALID,1007.34,VALID,0,VALID,97.3046,VALID,0,VALID,24.7464,VALID,346,VALID,0.212891,
2009-09-28, 00:57:04,VALID,1007.3,VALID,0,VALID,97.3656,VALID,0,VALID,24.7445,VALID,347,VALID,0.589063,
2009-09-28, 00:58:04,VALID,1007.31,VALID,0,VALID,97.4037,VALID,0,VALID,24.7854,VALID,347,VALID,0.388672,
2009-09-28, 00:59:04,VALID,1007.3,VALID,0,VALID,97.419,VALID,0,VALID,24.7854,VALID,347,VALID,0.03125,
2009-09-28, 01:00:04,VALID,1007.31,VALID,0,VALID,97.4571,VALID,0,VALID,24.7835,VALID,347,VALID,0.229297,
2009-09-28, 01:01:04,VALID,1007.32,VALID,0,VALID,97.4648,VALID,0,VALID,24.8049,VALID,347,VALID,0.00546875,
2009-09-28, 01:02:04,VALID,1007.32,VALID,0,VALID,97.419,VALID,0,VALID,24.8244,VALID,347,VALID,0,
2009-09-28, 01:03:04,VALID,1007.28,VALID,0,VALID,97.3427,VALID,0,VALID,24.8244,VALID,297,VALID,0.227734,
2009-09-28, 01:04:04,VALID,1007.28,VALID,0,VALID,97.2055,VALID,0,VALID,24.8049,VALID,297,VALID,0,
2009-09-28, 01:05:04,VALID,1007.26,VALID,0,VALID,97.1063,VALID,0,VALID,24.7659,VALID,297,VALID,0,
2009-09-28, 01:06:04,VALID,1007.26,VALID,0,VALID,97.0225,VALID,0,VALID,24.7659,VALID,297,VALID,0,
2009-09-28, 01:07:04,VALID,1007.21,VALID,0,VALID,96.9157,VALID,0,VALID,24.7269,VALID,297,VALID,0,
2009-09-28, 01:08:04,VALID,1007.18,VALID,0,VALID,96.8547,VALID,0,VALID,24.6666,VALID,297,VALID,0,
2009-09-28, 01:09:04,VALID,1007.17,VALID,0,VALID,96.9615,VALID,0,VALID,24.6684,VALID,297,VALID,0,
2009-09-28, 01:10:04,VALID,1007.17,VALID,0,VALID,97.0682,VALID,0,VALID,24.6489,VALID,297,VALID,0,
2009-09-28, 01:11:04,VALID,1007.14,VALID,0,VALID,97.0987,VALID,0,VALID,24.6099,VALID,297,VALID,0,
2009-09-28, 01:12:04,VALID,1007.1,VALID,0,VALID,97.175,VALID,0,VALID,24.571,VALID,297,VALID,0,
2009-09-28, 01:13:04,VALID,1007.1,VALID,0,VALID,97.2894,VALID,0,VALID,24.571,VALID,297,VALID,0,
2009-09-28, 01:14:04,VALID,1007.12,VALID,0,VALID,97.3351,VALID,0,VALID,24.5515,VALID,297,VALID,0,
2009-09-28, 01:15:04,VALID,1007.1,VALID,0,VALID,97.4266,VALID,0.105969,VALID,24.5515,VALID,297,VALID,0,
2009-09-28, 01:16:04,VALID,1007.09,VALID,0,VALID,97.5181,VALID,0.105969,VALID,24.5515,VALID,297,VALID,0,
2009-09-28, 01:17:04,VALID,1007.09,VALID,0,VALID,97.6173,VALID,0.105969,VALID,24.5515,VALID,297,VALID,0,
2009-09-28, 01:18:04,VALID,1007.09,VALID,0,VALID,97.6783,VALID,0.105969,VALID,24.571,VALID,297,VALID,0,
2009-09-28, 01:19:04,VALID,1007.05,VALID,0,VALID,97.724,VALID,0,VALID,24.5515,VALID,297,VALID,0,
2009-09-28, 01:20:04,VALID,1007.09,VALID,0,VALID,97.7545,VALID,0,VALID,24.5691,VALID,297,VALID,0,
2009-09-28, 01:21:04,VALID,1007.06,VALID,0,VALID,97.7698,VALID,0.105969,VALID,24.5496,VALID,297,VALID,0,
2009-09-28, 01:22:04,VALID,1007.07,VALID,0,VALID,97.785,VALID,0,VALID,24.571,VALID,297,VALID,0,
2009-09-28, 01:23:04,VALID,1006.99,VALID,0,VALID,97.8003,VALID,0.105969,VALID,24.571,VALID,297,VALID,0,
2009-09-28, 01:24:04,VALID,1006.97,VALID,0,VALID,97.8232,VALID,0,VALID,24.5515,VALID,298,VALID,0,
2009-09-28, 01:25:04,VALID,1006.95,VALID,0,VALID,97.785,VALID,0,VALID,24.532,VALID,298,VALID,0,
2009-09-28, 01:26:04,VALID,1006.91,VALID,0,VALID,97.7927,VALID,0,VALID,24.5125,VALID,298,VALID,0,
2009-09-28, 01:27:04,VALID,1006.9,VALID,0,VALID,97.8155,VALID,0,VALID,24.493,VALID,298,VALID,0,
2009-09-28, 01:28:04,VALID,1006.88,VALID,0,VALID,97.7774,VALID,0,VALID,24.4735,VALID,298,VALID,0,
2009-09-28, 01:29:04,VALID,1006.84,VALID,0,VALID,97.7622,VALID,0,VALID,24.4559,VALID,16,VALID,0,
2009-09-28, 01:30:04,VALID,1006.85,VALID,0,VALID,97.7774,VALID,0,VALID,24.4364,VALID,16,VALID,0,
2009-09-28, 01:31:04,VALID,1006.89,VALID,0,VALID,97.7927,VALID,0,VALID,24.415,VALID,16,VALID,0,
2009-09-28, 01:32:04,VALID,1006.91,VALID,0,VALID,97.8232,VALID,0,VALID,24.4364,VALID,16,VALID,0,
2009-09-28, 01:33:04,VALID,1006.98,VALID,0,VALID,97.8537,VALID,0,VALID,24.4345,VALID,348,VALID,0,
2009-09-28, 01:34:04,VALID,1006.98,VALID,0,VALID,97.8918,VALID,0,VALID,24.454,VALID,331,VALID,0.336719,
2009-09-28, 01:35:04,VALID,1007.02,VALID,0,VALID,97.9223,VALID,0,VALID,24.4735,VALID,331,VALID,0.889063,
2009-09-28, 01:36:04,VALID,1006.99,VALID,0,VALID,97.8994,VALID,0,VALID,24.4735,VALID,331,VALID,0.559375,
2009-09-28, 01:37:04,VALID,1007.01,VALID,0,VALID,97.8842,VALID,0,VALID,24.4735,VALID,331,VALID,0.531641,
2009-09-28, 01:38:04,VALID,1007.04,VALID,0,VALID,97.8384,VALID,0,VALID,24.4754,VALID,331,VALID,0.551562,
2009-09-28, 01:39:04,VALID,1007.04,VALID,0,VALID,97.8308,VALID,0,VALID,24.4754,VALID,331,VALID,0.526953,
2009-09-28, 01:40:04,VALID,1007.04,VALID,0,VALID,97.7622,VALID,0,VALID,24.4559,VALID,331,VALID,0.260156,
2009-09-28, 01:41:04,VALID,1007.04,VALID,0,VALID,97.7622,VALID,0,VALID,24.4364,VALID,331,VALID,0.00195313,
2009-09-28, 01:42:04,VALID,1007.05,VALID,0,VALID,97.7469,VALID,0,VALID,24.4559,VALID,331,VALID,0.175391,
2009-09-28, 01:43:04,VALID,1007.01,VALID,0,VALID,97.7469,VALID,0,VALID,24.4364,VALID,331,VALID,0.253125,
2009-09-28, 01:44:04,VALID,1007.01,VALID,0,VALID,97.7698,VALID,0,VALID,24.4132,VALID,331,VALID,0.303906,
2009-09-28, 01:45:04,VALID,1007.03,VALID,0,VALID,97.7927,VALID,0,VALID,24.4345,VALID,331,VALID,0.0183594,
2009-09-28, 01:46:04,VALID,1007,VALID,0,VALID,97.7774,VALID,0,VALID,24.3956,VALID,331,VALID,0,
2009-09-28, 01:47:04,VALID,1007.01,VALID,0,VALID,97.7774,VALID,0,VALID,24.3761,VALID,331,VALID,0,
2009-09-28, 01:48:04,VALID,1007.02,VALID,0,VALID,97.8155,VALID,0,VALID,24.3761,VALID,331,VALID,0,
2009-09-28, 01:49:04,VALID,1007.04,VALID,0,VALID,97.7927,VALID,0,VALID,24.3566,VALID,331,VALID,0,
2009-09-28, 01:50:04,VALID,1007.07,VALID,0,VALID,97.8384,VALID,0.105969,VALID,24.3566,VALID,331,VALID,0,
2009-09-28, 01:51:04,VALID,1007.06,VALID,0,VALID,97.8765,VALID,0,VALID,24.3352,VALID,331,VALID,0,
2009-09-28, 01:52:04,VALID,1007.07,VALID,0,VALID,97.9223,VALID,0,VALID,24.3566,VALID,331,VALID,0,
2009-09-28, 01:53:04,VALID,1007.1,VALID,0,VALID,97.9528,VALID,0,VALID,24.3566,VALID,331,VALID,0,
2009-09-28, 01:54:04,VALID,1007.14,VALID,0,VALID,97.9528,VALID,0.105969,VALID,24.3352,VALID,331,VALID,0,
2009-09-28, 01:55:04,VALID,1007.14,VALID,0,VALID,97.9681,VALID,0,VALID,24.3158,VALID,331,VALID,0,
2009-09-28, 01:56:04,VALID,1007.11,VALID,0,VALID,97.9833,VALID,0.105969,VALID,24.2963,VALID,331,VALID,0,
2009-09-28, 01:57:04,VALID,1007.14,VALID,0,VALID,97.9681,VALID,0,VALID,24.2981,VALID,331,VALID,0,
2009-09-28, 01:58:04,VALID,1007.18,VALID,0,VALID,97.9376,VALID,0,VALID,24.2981,VALID,331,VALID,0,
2009-09-28, 01:59:04,VALID,1007.16,VALID,0,VALID,97.9528,VALID,0.105969,VALID,24.2981,VALID,331,VALID,0,
2009-09-28, 02:00:04,VALID,1007.16,VALID,0,VALID,97.9147,VALID,0.105969,VALID,24.2981,VALID,331,VALID,0,
2009-09-28, 02:01:04,VALID,1007.19,VALID,0,VALID,97.9223,VALID,0.105969,VALID,24.2786,VALID,331,VALID,0,
2009-09-28, 02:02:04,VALID,1007.18,VALID,0,VALID,97.9223,VALID,0.105969,VALID,24.2573,VALID,331,VALID,0,
2009-09-28, 02:03:04,VALID,1007.22,VALID,0,VALID,97.9147,VALID,0.105969,VALID,24.2378,VALID,331,VALID,0,
2009-09-28, 02:04:04,VALID,1007.23,VALID,0,VALID,97.8994,VALID,0.105969,VALID,24.2396,VALID,331,VALID,0,
2009-09-28, 02:05:04,VALID,1007.25,VALID,0,VALID,97.9223,VALID,0.105969,VALID,24.2202,VALID,331,VALID,0,
2009-09-28, 02:06:04,VALID,1007.26,VALID,0,VALID,97.9376,VALID,0.105969,VALID,24.2202,VALID,331,VALID,0,
2009-09-28, 02:07:04,VALID,1007.25,VALID,0,VALID,97.9528,VALID,0.105969,VALID,24.2007,VALID,331,VALID,0,
2009-09-28, 02:08:04,VALID,1007.24,VALID,0,VALID,97.9604,VALID,0,VALID,24.1793,VALID,331,VALID,0,
2009-09-28, 02:09:04,VALID,1007.2,VALID,0,VALID,97.9909,VALID,0.105969,VALID,24.1793,VALID,331,VALID,0,
2009-09-28, 02:10:04,VALID,1007.2,VALID,0,VALID,98.0062,VALID,0.105969,VALID,24.1793,VALID,331,VALID,0,
2009-09-28, 02:11:04,VALID,1007.18,VALID,0,VALID,98.0214,VALID,0.105969,VALID,24.1793,VALID,331,VALID,0,
2009-09-28, 02:12:04,VALID,1007.17,VALID,0,VALID,97.9986,VALID,0.105969,VALID,24.1617,VALID,331,VALID,0,
2009-09-28, 02:13:04,VALID,1007.16,VALID,0,VALID,97.9986,VALID,0.105969,VALID,24.1404,VALID,331,VALID,0,
2009-09-28, 02:14:04,VALID,1007.16,VALID,0,VALID,97.9909,VALID,0,VALID,24.1422,VALID,331,VALID,0,
2009-09-28, 02:15:04,VALID,1007.14,VALID,0,VALID,97.9909,VALID,0,VALID,24.1227,VALID,331,VALID,0,
2009-09-28, 02:16:04,VALID,1007.11,VALID,0,VALID,98.0138,VALID,0,VALID,24.1227,VALID,331,VALID,0,
2009-09-28, 02:17:04,VALID,1007.11,VALID,0,VALID,98.0138,VALID,0,VALID,24.1032,VALID,331,VALID,0,
2009-09-28, 02:18:04,VALID,1007.1,VALID,0,VALID,98.0138,VALID,0,VALID,24.0643,VALID,331,VALID,0,
2009-09-28, 02:19:04,VALID,1007.08,VALID,0,VALID,97.9986,VALID,0,VALID,24.0643,VALID,331,VALID,0,
2009-09-28, 02:20:04,VALID,1007.02,VALID,0,VALID,97.9681,VALID,0,VALID,24.0643,VALID,331,VALID,0,
2009-09-28, 02:21:04,VALID,1007,VALID,0,VALID,98.0062,VALID,0,VALID,24.0448,VALID,331,VALID,0,
2009-09-28, 02:22:04,VALID,1006.96,VALID,0,VALID,97.9833,VALID,0,VALID,24.0661,VALID,331,VALID,0,
2009-09-28, 02:23:04,VALID,1006.95,VALID,0,VALID,98.0138,VALID,0,VALID,24.0448,VALID,331,VALID,0,
2009-09-28, 02:24:04,VALID,1006.9,VALID,0,VALID,98.0138,VALID,0,VALID,24.0466,VALID,105,VALID,0,
2009-09-28, 02:25:04,VALID,1006.9,VALID,0,VALID,98.0367,VALID,0,VALID,24.0253,VALID,103,VALID,0,
2009-09-28, 02:26:04,VALID,1006.95,VALID,0,VALID,98.0214,VALID,0,VALID,24.0466,VALID,104,VALID,0,
2009-09-28, 02:27:04,VALID,1006.98,VALID,0,VALID,98.0214,VALID,0,VALID,24.0271,VALID,103,VALID,0,
2009-09-28, 02:28:04,VALID,1006.98,VALID,0,VALID,98.0214,VALID,0,VALID,24.0058,VALID,103,VALID,0,
2009-09-28, 02:29:04,VALID,1006.98,VALID,0,VALID,98.0291,VALID,0.105969,VALID,24.0253,VALID,103,VALID,0,
2009-09-28, 02:30:04,VALID,1006.98,VALID,0,VALID,98.0443,VALID,0.105969,VALID,24.004,VALID,104,VALID,0,
2009-09-28, 02:31:04,VALID,1006.96,VALID,0,VALID,98.0443,VALID,0.105969,VALID,24.0253,VALID,103,VALID,0,
2009-09-28, 02:32:04,VALID,1006.94,VALID,0,VALID,98.0519,VALID,0.105969,VALID,24.004,VALID,104,VALID,0,
2009-09-28, 02:33:04,VALID,1006.91,VALID,0,VALID,98.0443,VALID,0.105969,VALID,24.0058,VALID,280,VALID,0.163672,
2009-09-28, 02:34:04,VALID,1006.92,VALID,0,VALID,98.0291,VALID,0.105969,VALID,24.0643,VALID,187,VALID,0.619141,
2009-09-28, 02:35:04,VALID,1006.89,VALID,0,VALID,98.0367,VALID,0.105969,VALID,24.1032,VALID,181,VALID,0.372266,
2009-09-28, 02:36:04,VALID,1006.93,VALID,0,VALID,98.0443,VALID,0.105969,VALID,24.1014,VALID,181,VALID,0.304297,
2009-09-28, 02:37:04,VALID,1006.94,VALID,0,VALID,98.0291,VALID,0.105969,VALID,24.1422,VALID,181,VALID,0.153516,
2009-09-28, 02:38:04,VALID,1006.95,VALID,0,VALID,98.0291,VALID,0.105969,VALID,24.1404,VALID,181,VALID,0.228125,
2009-09-28, 02:39:04,VALID,1006.93,VALID,0,VALID,98.0367,VALID,0,VALID,24.1422,VALID,181,VALID,0,
2009-09-28, 02:40:04,VALID,1006.95,VALID,0,VALID,98.0062,VALID,0,VALID,24.1635,VALID,181,VALID,0,
2009-09-28, 02:41:04,VALID,1006.93,VALID,0,VALID,97.9757,VALID,0,VALID,24.144,VALID,181,VALID,0,
2009-09-28, 02:42:04,VALID,1006.93,VALID,0,VALID,97.9681,VALID,0,VALID,24.1635,VALID,181,VALID,0,
2009-09-28, 02:43:04,VALID,1006.93,VALID,0,VALID,97.9452,VALID,0,VALID,24.1422,VALID,181,VALID,0,
2009-09-28, 02:44:04,VALID,1006.92,VALID,0,VALID,97.9681,VALID,0,VALID,24.1812,VALID,181,VALID,0,
2009-09-28, 02:45:04,VALID,1006.93,VALID,0,VALID,97.9604,VALID,0,VALID,24.1617,VALID,181,VALID,0,
2009-09-28, 02:46:04,VALID,1006.93,VALID,0,VALID,97.9376,VALID,0,VALID,24.1422,VALID,181,VALID,0,
2009-09-28, 02:47:04,VALID,1006.95,VALID,0,VALID,97.9604,VALID,0,VALID,24.1422,VALID,181,VALID,0,
2009-09-28, 02:48:04,VALID,1006.93,VALID,0,VALID,97.9681,VALID,0,VALID,24.1422,VALID,181,VALID,0,
2009-09-28, 02:49:04,VALID,1006.94,VALID,0,VALID,98.0062,VALID,0.105969,VALID,24.1209,VALID,181,VALID,0,
2009-09-28, 02:50:04,VALID,1006.93,VALID,0,VALID,97.9909,VALID,0,VALID,24.1032,VALID,181,VALID,0.0308594,
2009-09-28, 02:51:04,VALID,1006.95,VALID,0,VALID,97.9833,VALID,0,VALID,24.0837,VALID,181,VALID,0.291406,
2009-09-28, 02:52:04,VALID,1006.93,VALID,0,VALID,97.9909,VALID,0,VALID,24.0643,VALID,181,VALID,0.292969,
2009-09-28, 02:53:04,VALID,1006.91,VALID,0,VALID,97.9757,VALID,0,VALID,24.0253,VALID,181,VALID,0.202734,
2009-09-28, 02:54:04,VALID,1006.92,VALID,0,VALID,97.9604,VALID,0,VALID,24.0253,VALID,181,VALID,0.0832031,
2009-09-28, 02:55:04,VALID,1006.88,VALID,0,VALID,97.9757,VALID,0,VALID,24.0058,VALID,181,VALID,0,
2009-09-28, 02:56:04,VALID,1006.88,VALID,0,VALID,97.9986,VALID,0,VALID,24.0058,VALID,181,VALID,0,
2009-09-28, 02:57:04,VALID,1006.88,VALID,0,VALID,98.0214,VALID,0,VALID,23.9863,VALID,181,VALID,0,
2009-09-28, 02:58:04,VALID,1006.85,VALID,0,VALID,97.9909,VALID,0.105969,VALID,23.9668,VALID,181,VALID,0,
2009-09-28, 02:59:04,VALID,1006.81,VALID,0,VALID,98.0062,VALID,0,VALID,23.9668,VALID,181,VALID,0,
2009-09-28, 03:00:04,VALID,1006.82,VALID,0,VALID,98.0062,VALID,0,VALID,23.9473,VALID,181,VALID,0,
2009-09-28, 03:01:04,VALID,1006.82,VALID,0,VALID,98.0138,VALID,0,VALID,23.9473,VALID,181,VALID,0,
2009-09-28, 03:02:04,VALID,1006.81,VALID,0,VALID,98.0291,VALID,0,VALID,23.9473,VALID,181,VALID,0,
2009-09-28, 03:03:04,VALID,1006.82,VALID,0,VALID,98.0291,VALID,0,VALID,23.9278,VALID,181,VALID,0,
2009-09-28, 03:04:04,VALID,1006.82,VALID,0,VALID,98.0519,VALID,0.105969,VALID,23.9065,VALID,181,VALID,0,
2009-09-28, 03:05:04,VALID,1006.82,VALID,0,VALID,98.0443,VALID,0.105969,VALID,23.9084,VALID,180,VALID,0,
2009-09-28, 03:06:04,VALID,1006.82,VALID,0,VALID,98.0443,VALID,0,VALID,23.9278,VALID,156,VALID,0,
2009-09-28, 03:07:04,VALID,1006.8,VALID,0,VALID,98.0596,VALID,0,VALID,23.9297,VALID,156,VALID,0,
2009-09-28, 03:08:04,VALID,1006.79,VALID,0,VALID,98.0672,VALID,0,VALID,23.9065,VALID,156,VALID,0,
2009-09-28, 03:09:04,VALID,1006.78,VALID,0,VALID,98.0672,VALID,0,VALID,23.8676,VALID,156,VALID,0,
2009-09-28, 03:10:04,VALID,1006.78,VALID,0,VALID,98.0519,VALID,0,VALID,23.8676,VALID,156,VALID,0,
2009-09-28, 03:11:04,VALID,1006.76,VALID,0,VALID,98.0596,VALID,0,VALID,23.8889,VALID,156,VALID,0,
2009-09-28, 03:12:04,VALID,1006.76,VALID,0,VALID,98.0748,VALID,0.105969,VALID,23.8676,VALID,156,VALID,0,
2009-09-28, 03:13:04,VALID,1006.77,VALID,0,VALID,98.0596,VALID,0.105969,VALID,23.8694,VALID,155,VALID,0,
2009-09-28, 03:14:04,VALID,1006.75,VALID,0,VALID,98.0901,VALID,0,VALID,23.8481,VALID,155,VALID,0,
2009-09-28, 03:15:04,VALID,1006.74,VALID,0,VALID,98.0824,VALID,0.105969,VALID,23.8694,VALID,155,VALID,0,
2009-09-28, 03:16:04,VALID,1006.77,VALID,0,VALID,98.0977,VALID,0,VALID,23.8889,VALID,155,VALID,0,
2009-09-28, 03:17:04,VALID,1006.75,VALID,0,VALID,98.0901,VALID,0,VALID,23.8889,VALID,155,VALID,0,
2009-09-28, 03:18:04,VALID,1006.75,VALID,0,VALID,98.1053,VALID,0,VALID,23.9297,VALID,155,VALID,0,
2009-09-28, 03:19:04,VALID,1006.75,VALID,0,VALID,98.0824,VALID,0,VALID,23.8889,VALID,155,VALID,0,
2009-09-28, 03:20:04,VALID,1006.75,VALID,0,VALID,98.1206,VALID,0,VALID,23.8889,VALID,155,VALID,0,
2009-09-28, 03:21:04,VALID,1006.75,VALID,0,VALID,98.1206,VALID,0,VALID,23.8499,VALID,155,VALID,0,
2009-09-28, 03:22:04,VALID,1006.78,VALID,0,VALID,98.1129,VALID,0,VALID,23.8499,VALID,155,VALID,0,
2009-09-28, 03:23:04,VALID,1006.79,VALID,0,VALID,98.1053,VALID,0,VALID,23.8499,VALID,155,VALID,0,
2009-09-28, 03:24:04,VALID,1006.77,VALID,0,VALID,98.1129,VALID,0,VALID,23.8304,VALID,155,VALID,0,
2009-09-28, 03:25:04,VALID,1006.78,VALID,0,VALID,98.0977,VALID,0,VALID,23.8304,VALID,155,VALID,0,
2009-09-28, 03:26:04,VALID,1006.77,VALID,0,VALID,98.0977,VALID,0,VALID,23.8304,VALID,155,VALID,0,
2009-09-28, 03:27:04,VALID,1006.75,VALID,0,VALID,98.0901,VALID,0,VALID,23.7914,VALID,155,VALID,0,
2009-09-28, 03:28:04,VALID,1006.69,VALID,0,VALID,98.0901,VALID,0,VALID,23.772,VALID,155,VALID,0,
2009-09-28, 03:29:04,VALID,1006.69,VALID,0,VALID,98.1129,VALID,0,VALID,23.7525,VALID,155,VALID,0,
2009-09-28, 03:30:04,VALID,1006.65,VALID,0,VALID,98.0748,VALID,0,VALID,23.7525,VALID,155,VALID,0,
2009-09-28, 03:31:04,VALID,1006.67,VALID,0,VALID,98.0748,VALID,0,VALID,23.7135,VALID,155,VALID,0,
2009-09-28, 03:32:04,VALID,1006.65,VALID,0,VALID,98.0748,VALID,0,VALID,23.7135,VALID,155,VALID,0,
2009-09-28, 03:33:04,VALID,1006.65,VALID,0,VALID,98.0824,VALID,0,VALID,23.6745,VALID,155,VALID,0,
2009-09-28, 03:34:04,VALID,1006.64,VALID,0,VALID,98.0901,VALID,0,VALID,23.655,VALID,155,VALID,0,
2009-09-28, 03:35:04,VALID,1006.63,VALID,0,VALID,98.0824,VALID,0,VALID,23.655,VALID,155,VALID,0,
2009-09-28, 03:36:04,VALID,1006.65,VALID,0,VALID,98.0672,VALID,0,VALID,23.6745,VALID,155,VALID,0,
2009-09-28, 03:37:04,VALID,1006.63,VALID,0,VALID,98.0672,VALID,0,VALID,23.694,VALID,155,VALID,0,
2009-09-28, 03:38:04,VALID,1006.65,VALID,0,VALID,98.0901,VALID,0,VALID,23.733,VALID,155,VALID,0,
2009-09-28, 03:39:04,VALID,1006.65,VALID,0,VALID,98.0977,VALID,0,VALID,23.7525,VALID,155,VALID,0,
2009-09-28, 03:40:04,VALID,1006.65,VALID,0,VALID,98.1206,VALID,0,VALID,23.772,VALID,155,VALID,0,
2009-09-28, 03:41:04,VALID,1006.67,VALID,0,VALID,98.1282,VALID,0.105969,VALID,23.7914,VALID,155,VALID,0,
2009-09-28, 03:42:04,VALID,1006.69,VALID,0,VALID,98.1434,VALID,0,VALID,23.7914,VALID,155,VALID,0,
2009-09-28, 03:43:04,VALID,1006.68,VALID,0,VALID,98.1511,VALID,0,VALID,23.772,VALID,155,VALID,0,
2009-09-28, 03:44:05,VALID,1006.7,VALID,0,VALID,98.1511,VALID,0.105969,VALID,23.7914,VALID,155,VALID,0,
2009-09-28, 03:45:05,VALID,1006.73,VALID,0,VALID,98.1587,VALID,0.105969,VALID,23.7701,VALID,155,VALID,0,
2009-09-28, 03:46:05,VALID,1006.74,VALID,0,VALID,98.1434,VALID,0.105969,VALID,23.7701,VALID,155,VALID,0,
2009-09-28, 03:47:05,VALID,1006.72,VALID,0,VALID,98.1434,VALID,0,VALID,23.7914,VALID,155,VALID,0,
2009-09-28, 03:48:05,VALID,1006.74,VALID,0,VALID,98.1434,VALID,0,VALID,23.7914,VALID,155,VALID,0,
2009-09-28, 03:49:05,VALID,1006.67,VALID,0,VALID,98.1663,VALID,0,VALID,23.7701,VALID,155,VALID,0,
2009-09-28, 03:50:05,VALID,1006.69,VALID,0,VALID,98.1358,VALID,0.105969,VALID,23.772,VALID,155,VALID,0,
2009-09-28, 03:51:05,VALID,1006.62,VALID,0,VALID,98.1358,VALID,0.105969,VALID,23.7525,VALID,155,VALID,0,